Location: Aciu?a
(46.2833°N, 22.4500°E)
Time: 06:00:57
(UTC+00:00)

USA 215 - Pass Details

Date: 25 October 2021
Orbit: 1099 x 1109 km, 123.0° (Epoch: 20 November)

Event Time Altitude Azimuth Distance (km) Brightness Sun altitude
Exits shadow 16:36:48 - 50° (NE) 3,026 5.1 -12.8°
Reaches altitude 10° 16:36:58 10° 50° (NE) 2,964 5.0 -12.8°
Maximum altitude 16:43:24 64° 331° (NNW) 1,217 3.6 -13.9°
Drops below altitude 10° 16:49:50 10° 252° (WSW) 2,962 6.8 -15.0°
Sets 16:52:20 0° 250° (WSW) 3,919 7.6 -15.4°
